When you browse on this site, cookies collect data to enhance your experience and personalize the content and advertising you see.
Visit our Privacy Policy to learn more. By continuing to use the site, you agree to this use of cookies and data.
  • In Schweiz
  • Länderverzeichnis
  • Für 7 Tage
  • Wassertemperatur
  • Wetterkarte
  • Widgets
  • user-avatar
    Anmelden

    Stündliche Wetter Edinburgh

    Heute, 29 März, Sonntag

    Zeit Temperatur Niederschläge Wind Luftdruck Luftfeuchtigkeit
    00:00 -1°C° 0 mm 3 m/S 782 mmHg 73%
    01:00 -1°C° 0 mm 3 m/S 782 mmHg 74%
    02:00 -1°C° 0 mm 2 m/S 782 mmHg 75%
    03:00 -2°C° 0 mm 2 m/S 782 mmHg 76%
    04:00 -2°C° 0 mm 2 m/S 782 mmHg 77%
    05:00 -2°C° 0 mm 2 m/S 783 mmHg 77%
    06:00 -2°C° 0 mm 2 m/S 783 mmHg 78%
    07:00 +1°C° 0 mm 2 m/S 783 mmHg 70%
    08:00 +2°C° 0 mm 2 m/S 784 mmHg 62%
    09:00 +3°C° 0 mm 2 m/S 784 mmHg 54%
    10:00 +4°C° 0 mm 2 m/S 784 mmHg 50%
    11:00 +5°C° 0 mm 2 m/S 784 mmHg 46%
    12:00 +6°C° 0 mm 2 m/S 784 mmHg 42%
    13:00 +7°C° 0 mm 2 m/S 783 mmHg 42%
    14:00 +7°C° 0 mm 2 m/S 783 mmHg 42%
    15:00 +8°C° 0 mm 3 m/S 782 mmHg 42%
    16:00 +7°C° 0 mm 2 m/S 782 mmHg 48%
    17:00 +7°C° 0 mm 2 m/S 782 mmHg 55%
    18:00 +6°C° 0 mm 2 m/S 781 mmHg 61%
    19:00 +5°C° 0 mm 2 m/S 781 mmHg 66%
    20:00 +4°C° 0 mm 2 m/S 781 mmHg 71%
    21:00 +3°C° 0 mm 2 m/S 781 mmHg 76%
    22:00 +2°C° 0 mm 2 m/S 780 mmHg 79%
    23:00 +2°C° 0 mm 2 m/S 780 mmHg 83%

    Morgen, 30 März, Montag

    Zeit Temperatur Niederschläge Wind Luftdruck Luftfeuchtigkeit
    00:00 +2°C° 0 mm 2 m/S 780 mmHg 87%
    01:00 +2°C° 0 mm 2 m/S 779 mmHg 88%
    02:00 +1°C° 0 mm 2 m/S 779 mmHg 90%
    03:00 +1°C° 0 mm 2 m/S 778 mmHg 92%
    04:00 +2°C° 0 mm 1 m/S 778 mmHg 92%
    05:00 +2°C° 0 mm 1 m/S 778 mmHg 92%
    06:00 +2°C° 0 mm 1 m/S 778 mmHg 93%
    07:00 +3°C° 0 mm 2 m/S 778 mmHg 86%
    08:00 +5°C° 0 mm 2 m/S 778 mmHg 79%
    09:00 +7°C° 0 mm 2 m/S 777 mmHg 72%
    10:00 +8°C° 0 mm 2 m/S 777 mmHg 68%
    11:00 +9°C° 0 mm 2 m/S 777 mmHg 64%
    12:00 +10°C° 0 mm 3 m/S 777 mmHg 61%
    13:00 +10°C° 0 mm 2 m/S 776 mmHg 60%
    14:00 +10°C° 0 mm 2 m/S 776 mmHg 59%
    15:00 +10°C° 0 mm 2 m/S 776 mmHg 59%
    16:00 +10°C° 0 mm 1 m/S 776 mmHg 63%
    17:00 +10°C° 0 mm 1 m/S 776 mmHg 67%
    18:00 +9°C° 0 mm 1 m/S 775 mmHg 71%
    19:00 +8°C° 0 mm 1 m/S 775 mmHg 74%
    20:00 +6°C° 0 mm 1 m/S 776 mmHg 78%
    21:00 +5°C° 0 mm 1 m/S 776 mmHg 82%
    22:00 +5°C° 0 mm 1 m/S 776 mmHg 84%
    23:00 +4°C° 0 mm 1 m/S 776 mmHg 86%

    übermorgen, 31 März, Dienstag

    Zeit Temperatur Niederschläge Wind Luftdruck Luftfeuchtigkeit
    00:00 +4°C° 0 mm 1 m/S 776 mmHg 88%
    01:00 +3°C° 0 mm 1 m/S 775 mmHg 89%
    02:00 +3°C° 0 mm 1 m/S 775 mmHg 90%
    03:00 +3°C° 0 mm 1 m/S 775 mmHg 91%
    04:00 +3°C° 0 mm 1 m/S 775 mmHg 92%
    05:00 +2°C° 0 mm 1 m/S 775 mmHg 93%
    06:00 +2°C° 0 mm 1 m/S 775 mmHg 93%
    07:00 +4°C° 0 mm 1 m/S 774 mmHg 87%
    08:00 +4°C° 0 mm 2 m/S 774 mmHg 80%
    09:00 +6°C° 0 mm 2 m/S 774 mmHg 74%
    10:00 +7°C° 0 mm 2 m/S 774 mmHg 68%
    11:00 +8°C° 0 mm 2 m/S 773 mmHg 63%
    12:00 +10°C° 0 mm 2 m/S 773 mmHg 57%
    13:00 +10°C° 0 mm 3 m/S 773 mmHg 57%
    14:00 +10°C° 0 mm 3 m/S 772 mmHg 56%
    15:00 +10°C° 0 mm 4 m/S 772 mmHg 56%
    16:00 +10°C° 0 mm 3 m/S 772 mmHg 60%
    17:00 +9°C° 0 mm 3 m/S 771 mmHg 64%
    18:00 +8°C° 0 mm 3 m/S 771 mmHg 68%
    19:00 +7°C° 0 mm 3 m/S 771 mmHg 71%
    20:00 +6°C° 0 mm 2 m/S 771 mmHg 73%
    21:00 +6°C° 0 mm 2 m/S 771 mmHg 76%
    22:00 +6°C° 0 mm 2 m/S 771 mmHg 76%
    23:00 +6°C° 0 mm 2 m/S 771 mmHg 76%

    1 April, Mittwoch

    Zeit Temperatur Niederschläge Wind Luftdruck Luftfeuchtigkeit
    00:00 +5°C° 0 mm 2 m/S 771 mmHg 76%
    01:00 +5°C° 0 mm 2 m/S 770 mmHg 75%
    02:00 +5°C° 0 mm 2 m/S 770 mmHg 74%
    03:00 +5°C° 0 mm 2 m/S 769 mmHg 73%
    04:00 +5°C° 0 mm 2 m/S 769 mmHg 74%
    05:00 +5°C° 0 mm 2 m/S 769 mmHg 75%
    06:00 +5°C° 0 mm 2 m/S 768 mmHg 76%
    07:00 +5°C° 0 mm 3 m/S 768 mmHg 73%
    08:00 +7°C° 0 mm 3 m/S 768 mmHg 69%
    09:00 +7°C° 0 mm 4 m/S 767 mmHg 66%
    10:00 +7°C° 0 mm 4 m/S 767 mmHg 64%
    11:00 +8°C° 0 mm 4 m/S 767 mmHg 62%
    12:00 +10°C° 0 mm 4 m/S 766 mmHg 60%
    13:00 +8°C° 0 mm 4 m/S 766 mmHg 61%
    14:00 +8°C° 0 mm 5 m/S 765 mmHg 62%
    15:00 +8°C° 0 mm 5 m/S 765 mmHg 63%
    16:00 +7°C° 0 mm 5 m/S 764 mmHg 66%
    17:00 +7°C° 0 mm 4 m/S 764 mmHg 68%
    18:00 +6°C° 0 mm 4 m/S 763 mmHg 70%
    19:00 +5°C° 0 mm 4 m/S 763 mmHg 76%
    20:00 +4°C° 0 mm 3 m/S 763 mmHg 82%
    21:00 +3°C° 0 mm 3 m/S 763 mmHg 88%
    22:00 +4°C° 0 mm 3 m/S 763 mmHg 87%
    23:00 +5°C° 0 mm 4 m/S 762 mmHg 87%

    2 April, Donnerstag

    Zeit Temperatur Niederschläge Wind Luftdruck Luftfeuchtigkeit
    00:00 +5°C° 0 mm 4 m/S 762 mmHg 87%
    01:00 +5°C° 0 mm 4 m/S 761 mmHg 89%
    02:00 +5°C° 0 mm 4 m/S 761 mmHg 90%
    03:00 +6°C° 0 mm 4 m/S 761 mmHg 91%
    04:00 +5°C° 0 mm 4 m/S 760 mmHg 92%
    05:00 +5°C° 0 mm 4 m/S 760 mmHg 93%
    06:00 +5°C° 0 mm 4 m/S 760 mmHg 94%
    07:00 +6°C° 0 mm 4 m/S 760 mmHg 88%
    08:00 +7°C° 0 mm 5 m/S 760 mmHg 81%
    09:00 +8°C° 0 mm 6 m/S 759 mmHg 75%
    10:00 +8°C° 0 mm 7 m/S 759 mmHg 71%
    11:00 +9°C° 0 mm 7 m/S 759 mmHg 67%
    12:00 +9°C° 0 mm 8 m/S 759 mmHg 64%
    13:00 +9°C° 0 mm 8 m/S 758 mmHg 65%
    14:00 +9°C° 0 mm 8 m/S 758 mmHg 67%
    15:00 +9°C° 0 mm 8 m/S 757 mmHg 68%
    16:00 +7°C° 0 mm 8 m/S 757 mmHg 69%
    17:00 +6°C° 0 mm 7 m/S 757 mmHg 71%
    18:00 +5°C° 0 mm 7 m/S 756 mmHg 73%
    19:00 +5°C° 0 mm 7 m/S 756 mmHg 73%
    20:00 +5°C° 0 mm 6 m/S 756 mmHg 74%
    21:00 +4°C° 0 mm 6 m/S 756 mmHg 75%
    22:00 +4°C° 0 mm 6 m/S 756 mmHg 75%
    23:00 +3°C° 0 mm 6 m/S 756 mmHg 75%

    3 April, Freitag

    Zeit Temperatur Niederschläge Wind Luftdruck Luftfeuchtigkeit
    00:00 +2°C° 0 mm 6 m/S 756 mmHg 76%
    01:00 +2°C° 0 mm 5 m/S 756 mmHg 76%
    02:00 +1°C° 0 mm 5 m/S 756 mmHg 75%
    03:00 +1°C° 0 mm 4 m/S 756 mmHg 75%
    04:00 0°C° 0 mm 4 m/S 756 mmHg 76%
    05:00 +1°C° 0 mm 3 m/S 756 mmHg 78%
    06:00 0°C° 0 mm 3 m/S 757 mmHg 79%
    07:00 +2°C° 0 mm 3 m/S 757 mmHg 74%
    08:00 +3°C° 0 mm 4 m/S 757 mmHg 70%
    09:00 +5°C° 0 mm 5 m/S 757 mmHg 65%
    10:00 +5°C° 0 mm 5 m/S 757 mmHg 63%
    11:00 +6°C° 0 mm 5 m/S 757 mmHg 60%
    12:00 +6°C° 0 mm 5 m/S 757 mmHg 57%
    13:00 +6°C° 0 mm 5 m/S 757 mmHg 56%
    14:00 +7°C° 0 mm 5 m/S 757 mmHg 56%
    15:00 +7°C° 0 mm 5 m/S 756 mmHg 55%
    16:00 +6°C° 0 mm 5 m/S 756 mmHg 60%
    17:00 +5°C° 0 mm 4 m/S 756 mmHg 64%
    18:00 +5°C° 0 mm 4 m/S 756 mmHg 69%
    19:00 +4°C° 0 mm 3 m/S 756 mmHg 75%
    20:00 +3°C° 0 mm 3 m/S 755 mmHg 81%
    21:00 +3°C° 0 mm 2 m/S 755 mmHg 88%
    22:00 +3°C° 0.9 mm 2 m/S 755 mmHg 90%
    23:00 +4°C° 0.9 mm 2 m/S 755 mmHg 93%
    Mehr zeigen